Погода в Кенг-Кюёле

Россия / Республика Саха (Якутия)     68°04′35″N   145°59′19″E
темп.,
°C
ветер,
м/с
пор.,
м/с
влажн.,
%
обл.,
%
осадки,
мм/ч
давл.,
гПа
погр.,
м
27 февраля, сб
сб2723:00−35зюз0010032 0.0 103519
02:00−35ссз0110083 0.0 103419
05:00−33сз0110091 0.1 103319
08:00−35ссз1110094 0.0 103319
11:00−33зсз019796 0.1 103319
14:00−30зсз119498 0.0 1033137
17:00−32ссз119896 0.0 103219
20:00−35св0010045 0.0 103219
28 февраля, вс
вс2823:00−35сз1110054 0.0 103219
02:00−35ссв1110097 0.0 103119
05:00−35с1110098 0.0 103019
08:00−36св01100100 0.0 103019
11:00−33сз0198100 0.0 102919
14:00−31сз119395 0.0 1028152
17:00−34ссз119770 0.0 102719
20:00−37сз111000 0.0 102819
1 марта, пн
пн123:00−37сз111000 0.0 102819
02:00−38зсз1210036 0.0 102619
05:00−38сз1210047 0.0 102619
08:00−39сз2210024 0.0 102618
11:00−36сз229650 0.0 102636
14:00−34зсз229178 0.0 1025201
17:00−36зсз229573 0.0 102419
20:00−39з129959 0.0 102519
2 марта, вт
вт223:00−39зсз229961 0.0 102518
02:00−40зюз1110032 0.0 102618
05:00−40з1110023 0.0 102518
08:00−40зюз1110030 0.0 102718
11:00−37зюз119533 0.0 102742
14:00−34з118948 0.0 1028167
17:00−35зюз019454 0.0 102819
20:00−39ююз0110060 0.0 102919
3 марта, ср
ср323:00−39ююв0010045 0.0 103019
02:00−40вюв0010064 0.0 103018
05:00−39ю0110075 0.0 102918
08:00−39всв119997 0.0 102918
11:00−36всв119498 0.0 102838
14:00−34ссв1189100 0.0 1026192
17:00−34ссз1194100 0.0 102519
20:00−36ссз2296100 0.0 102319